{"data":{"norad_id":41790,"intl_designator":"2016-059H","name":"SCATSAT 1","alt_names":[],"object_type":"PAYLOAD","status":"ACTIVE","operator":null,"country":"IND","launch_date":"2016-09-26","launch_site_code":"SRILR","launch_vehicle":null,"mission":null,"orbit_class":"UNKNOWN","rcs_meters":1.7214,"size_class":null,"mass_kg":null,"dimensions":null,"purposes":["earth_obs"],"wikipedia_slug":null,"has_3d_model":false,"image_url":null,"decayed_at":null,"tle_current":{"epoch":"2026-05-25T03:37:27.827328Z","epoch_age_seconds":57957,"freshness":"FRESH","line1":"1 41790U 16059H   26145.15101652  .00000827  00000+0  11561-3 0  9994","line2":"2 41790  98.1201 208.6789 0053743 323.5100  36.2453 14.79469326 98180","mean_motion":14.79469326,"eccentricity":0.0053743,"inclination_deg":98.1201,"raan_deg":208.6789,"arg_perigee_deg":323.51,"mean_anomaly_deg":36.2453,"bstar":0.00011561,"rev_number":9818,"period_min":97.332197071857,"perigee_km":593.33051190918,"apogee_km":668.66891880789,"semimajor_km":7009.1367153585,"source":"CELESTRAK","updated_at":"2026-05-25T13:38:12.824370Z"}}}